Regional Weather Roundup
Issued by NWS

Home | Current Version | Previous Version | Text Only | Print | Product List | Glossary Off
Versions: 1 2 3 4 5 6 7 8 9 10 11 12 13 14 15 16 17 18 19 20 21 22 23 24 25 26 27

000
ASUS45 KBOU 301407
RWRCO

WEATHER ROUNDUP FOR COLORADO
NATIONAL WEATHER SERVICE DENVER/BOULDER CO
800 AM MDT TUE AUG 30 2016

NOTE: "FAIR" INDICATES FEW OR NO CLOUDS BELOW 12000 FEET WITH NO
SIGNIFICANT WEATHER AND/OR OBSTRUCTIONS TO VISIBILITY.

COZ001>005-013-030-031-301500-
...NORTHWEST COLORADO...

CITY           SKY/WX    TMP DP  RH WIND       PRES   REMARKS
CRAIG          FAIR      52  39  61 CALM      30.38S
HAYDEN         FAIR      54  36  50 SE8       30.39S
MEEKER         FAIR      48  40  73 NE5       30.39R
MOUNT WERNER   NOT AVBL
STEAMBOAT SPGS FAIR      46  37  70 CALM      30.42S
WALDEN         FAIR      37  32  81 CALM      30.51S
$$

COZ006>008-011-301500-
...WEST CENTRAL VALLEYS...

CITY           SKY/WX    TMP DP  RH WIND       PRES   REMARKS
GRAND JUNCTION FAIR      61  44  53 SE12      30.29R
MONTROSE       FAIR      53  44  71 S3        30.37R
EAGLE          SUNNY     45  39  81 CALM      30.46R
RIFLE          FAIR      52  44  74 CALM      30.36R
DELTA          FAIR      58  43  57 CALM      30.34S
NUCLA          FAIR     N/A N/A N/A E5        30.39R
$$

COZ017>023-064>068-301500-
...SOUTHWEST COLORADO...

CITY           SKY/WX    TMP DP  RH WIND       PRES   REMARKS
DURANGO        FAIR      54  44  69 CALM      30.40R
CORTEZ         FAIR      55  48  77 CALM      30.33S
PAGOSA SPRINGS FAIR      52  42  69 CALM      30.46S
TELLURIDE      FAIR      51  39  63 CALM      30.53S
WOLF CREEK PAS FAIR      43  36  75 CALM      30.70S
$$

COZ009-010-012-014-032>034-037-058>063-301500-
...CENTRAL COLORADO...

CITY           SKY/WX    TMP DP  RH WIND       PRES   REMARKS
ASPEN          FAIR      46  40  79 CALM      30.45S
BUENA VISTA    FAIR      44  40  86 N5        30.51F
COPPER MTN     FAIR      46  34  61 CALM      30.69S
BERTHOUD PASS  FAIR      36  25  64 E22       30.72R
COTTONWOOD PAS FAIR      50  36  57 SW5       30.59S
GUNNISON       FAIR      43  37  81 CALM      30.53R
KREMMLING      FAIR      41  36  81 CALM      30.49S
LEADVILLE      FAIR      38  35  89 CALM      30.58S
MONARCH PASS   FAIR      37  34  87 E5        30.79S
SALIDA         FAIR      46  43  86 CALM      30.58S
SUNLIGHT       FAIR      48  34  57 CALM      30.64S
WILKERSON PASS FAIR      45  34  65 CALM      30.69S
$$

COZ069>075-301500-
...SAN LUIS VALLEY/SANGRE DE CRISTO MOUNTAINS...

CITY           SKY/WX    TMP DP  RH WIND       PRES   REMARKS
ALAMOSA        FAIR      46  42  86 CALM      30.47S
LA VETA PASS   FAIR      46  39  76 NE5       30.60R
SAGUACHE       FAIR      46  41  81 NW13      30.49R
$$

COZ035-036-038>040-301500-
...NORTHERN COLORADO FRONT RANGE...

CITY           SKY/WX    TMP DP  RH WIND       PRES   REMARKS
DENVER INTL AP PTSUNNY   62  45  53 SW9       30.34S
DMNS CITY PARK   N/A     62  48  59 S3        30.35R
AURORA         PTSUNNY   62  46  57 SW5       30.37R
FRONT RANGE AP PTSUNNY   63  46  55 S7        30.36
ERIE MUNI ARPT FAIR      54  49  85 CALM      30.34R
BOULDER MUN AP FAIR      61  45  55 SW5       30.34R
CENTENNIAL     PTSUNNY   60  46  59 S3        30.37R
BROOMFIELD     MOSUNNY   59  45  58 SW3       30.36S
FORT COLLINS   FAIR      59  54  82 CALM      30.33S
LONGMONT       FAIR      57  51  80 CALM      30.35R
$$

COZ041-046-047-076>085-087-088-301500-
...PIKES PEAK/PALMER DIVIDE AND SOUTHERN FOOTHILLS...

CITY           SKY/WX    TMP DP  RH WIND       PRES   REMARKS
COLO. SPRINGS  PTSUNNY   59  47  64 NE3       30.41R
A. F. ACADEMY  FAIR      51  48  90 N8        30.41S
SCHRIEVER AFB  NOT AVBL
ELLICOTT       NOT AVBL
FALCON         PTSUNNY   60  44  55 CALM      30.44S
FORT CARSON    FAIR      59  49  71 N5        30.38R
LIMON          FAIR      55  49  80 N5        30.35S
MONUMENT HILL  FAIR      54  43  66 W5        30.45R
TRINIDAD       FAIR      59  50  72 W12       30.38R
$$

COZ042>045-048>051-090-091-301500-
...NORTHEAST COLORADO...

CITY           SKY/WX    TMP DP  RH WIND       PRES   REMARKS
GREELEY ARPT   PTSUNNY   59  54  82 CALM      30.33S
AKRON          FAIR      61  51  70 W10       30.31R
BURLINGTON     FOG       59  57  93 NW5       30.30R VSB<1/4
WRAY           PTSUNNY  N/A N/A N/A W5        30.27  HAZE
STERLING       FAIR      59  55  88 CALM      30.27S
HOLYOKE        FAIR      63  61  94 CALM      30.28S
FORT MORGAN    FAIR      58  55  89 W5        30.32R
$$

COZ086-089-092>099-301500-
...SOUTHEAST COLORADO...

CITY           SKY/WX    TMP DP  RH WIND       PRES   REMARKS
PUEBLO         FAIR      63  52  67 W6        30.32S
LA JUNTA       FAIR      64  56  75 CALM      30.30R
LAMAR          CLOUDY    62  59  90 NW3       30.26S
SPRINGFIELD      N/A     61  56  83 W3        30.30R
$$




USA.gov is the U.S. government's official web portal to all federal, state and local government web resources and services.